Regional Weather Roundup
Issued by NWS Midland/Odessa, TX

Skip options and go directly to product.
Home | Oldest Version | Previous Version | Current Version | All | Text Only | Save Text | Print | Product List | Glossary Off

Skip product version selection by date and time.   

858
ASUS44 KMAF 191110
RWRMAF
MIDLAND AREA WEATHER ROUNDUP
NATIONAL WEATHER SERVICE MIDLAND TX
600 AM CDT FRI SEP 19 2014

...IN SOUTHWEST TEXAS AND SOUTHEAST NEW MEXICO...

CITY           SKY/WX    TMP DP  RH WIND       PRES   REMARKS
ALPINE         MOCLDY    67  63  86 S5        30.04S
ANDREWS        RAIN      68  67  98 E6        29.98R
ARTESIA        NOT AVBL
BIG SPRING     CLOUDY    72  67  86 E5        29.97S
CARLSBAD       CLOUDY    69  32  25 VRB3      29.91S
DRYDEN           N/A     75  70  84 SE3       29.88S
FORT STOCKTON  MOCLDY    71  68  90 SE8       29.91S
GUAD PASS      FOG       64  63  96 SW3       30.11R VSB 1/4
HOBBS          NOT AVBL
MARFA          CLOUDY    64  64 100 MISG      30.03S
MIDLAND AIRPK  NOT AVBL
MIDLAND INTL   CLOUDY    69  68  96 E7        29.95S
ODESSA         LGT RAIN  69  67  93 E7        29.96R
PECOS          RAIN      69  67  94 E13       29.89S
PRESIDIO       FAIR      74  67  80 NE3       29.89R
SEMINOLE       RAIN      67  67  98 CALM      30.00R
SNYDER         CLOUDY    68  67  98 NE6       29.97S
WINK           NOT AVBL
$$
...OTHER STATIONS IN TEXAS...

CITY           SKY/WX    TMP DP  RH WIND       PRES   REMARKS
ABILENE        FOG       69  68  96 SE6       29.96R VSB 1/2
AMARILLO       CLEAR     61  61 100 SE5       30.03S
AUSTIN         FOG       76  75  97 N6        29.88R VSB 1
BROWNSVILLE    CLEAR     78  76  93 CALM      29.81  FOG
CORPUS CHRISTI MOCLDY    78  75  90 CALM      29.82S
DALLAS FTW     PTCLDY    69  66  90 SE5       29.93S
DEL RIO        PTCLDY    77  71  82 SE7       29.83F
EL PASO        MOCLDY    67  65  93 N6        29.95R
HOUSTON INT    CLOUDY    75  74  96 CALM      29.88R
LUBBOCK        LGT RAIN  66  65  96 E9        30.00S FOG
SAN ANGELO     CLOUDY    70  69  97 NE7       29.92R
SAN ANTONIO    CLOUDY    77  74  90 E5        29.87S
WACO           CLOUDY    70  69  97 N3        29.91F FOG
WICHITA FALLS  NOT AVBL
$$
...OTHER LOCATIONS IN NEW MEXICO...

CITY           SKY/WX    TMP DP  RH WIND       PRES   REMARKS
ALAMAGORDO     LGT RAIN  64  64 100 NW8       29.97S
ALBUQUERQUE    CLOUDY    66  58  75 N7        30.07S
CANNON AFB     MOCLDY    64  63  94 SE5       30.05S FOG
CLOVIS           N/A     63  63 100 S3        30.07S
HOLLOMAN AFB   MOCLDY    64  59  82 N1        29.96S
ROSWELL        CLOUDY    67  65  93 E8        29.96S
RUIDOSO        CLOUDY    55  55 100 E5        30.14S FOG
SANTA FE       CLOUDY    59  52  77 NE5       30.13R
TRUTH OR CONSE CLOUDY    62  58  86 NW7       30.00S
TUCUMCARI      CLOUDY    66  61  84 CALM      30.03R
$$

USA.gov is the U.S. government's official web portal to all federal, state and local government web resources and services.